Regional Weather Roundup
Issued by NWS Albany, NY

Home | Current Version | Previous Version | Graphics & Text | Print | Product List | Glossary Off
Versions: 1 2 3 4 5 6 7 8 9 10 11 12 13 14 15 16 17 18 19 20 21 22 23 24 25 26 27

000
ASUS41 KALY 251910
RWRALY

NEW YORK STATE HOURLY WEATHER ROUNDUP
NATIONAL WEATHER SERVICE ALBANY NY
300 PM EDT SAT MAR 25 2017

NOTE: "FAIR" INDICATES FEW OR NO CLOUDS BELOW 12,000 FEET WITH NO
SIGNIFICANT WEATHER AND/OR NO OBSTRUCTIONS TO VISIBILITY.

NYZ032-033-038>043-046>054-057>066-NYZ062>081-082-084-252000-
EAST


CITY           SKY/WX    TMP DP  RH WIND       PRES   REMARKS
ALBANY         LGT RAIN  35  31  85 N7        30.32S FOG     WCI  29
GLENS FALLS    CLOUDY    36  32  85 N5        30.32F WCI  32
POUGHKEEPSIE   CLOUDY    38  33  82 N14       30.29R WCI  30
NEWBURGH       CLOUDY    41  37  87 NE9       30.28R
MONTGOMERY     CLOUDY    40  35  83 NE18      30.26R WCI  31
WHITE PLAINS   LGT RAIN  54  41  61 N6        30.19S
ISLIP          CLOUDY    53  41  63 S7        30.21R
NEW YORK CITY  PTSUNNY   56  41  57 NE10      30.18F
CENTRAL PARK   PTSUNNY   58  41  53 E9        30.20F
$$

NYZ005>009-017-018-044>046-055-056-252000-
CENTRAL


CITY           SKY/WX    TMP DP  RH WIND       PRES   REMARKS
FULTON         CLOUDY    38  34  85 N6        30.33S WCI  33
SYRACUSE       CLOUDY    36  35  96 NW7       30.32R WCI  30
ROME           CLOUDY    37  36  96 NW6       30.33R WCI  32
ELMIRA         LGT RAIN  37  33  85 E5        30.29F WCI  33
BINGHAMTON     LGT RAIN  36  35  96 N3        30.24F
MONTICELLO     CLOUDY    39  37  93 E6        30.25R WCI  35
$$

NYZ026>034-041>043-087-252000-
NORTH


CITY           SKY/WX    TMP DP  RH WIND       PRES   REMARKS
WATERTOWN      CLOUDY    37  31  78 NE15      30.35R WCI  28
FORT DRUM      NOT AVBL
MASSENA        CLOUDY    34  27  75 NE12      30.41R WCI  25
SARANAC LAKE   CLOUDY    31  30  96 E8        30.26S WCI  23
PLATTSBURGH    CLOUDY    33  22  63 N12       30.38S WCI  24
$$

NYZ001>004-010>016-019>021-085-252000-
WEST


CITY           SKY/WX    TMP DP  RH WIND       PRES   REMARKS
NIAGARA FALLS  CLOUDY    38  32  79 E16       30.32R WCI  29
BUFFALO        CLOUDY    37  33  85 NE18      30.30S WCI  27
DUNKIRK        LGT RAIN  37  36  96 N10       30.26F WCI  30
JAMESTOWN      CLOUDY    43  37  81 E6        30.21F
WELLSVILLE     LGT RAIN  37  35  92 SE5       30.25F WCI  33
ROCHESTER      CLOUDY    36  33  89 NE13      30.35S WCI  27
PENN YAN       RAIN      35  31  85 N5        30.30S FOG     WCI  31
$$

             KEY
       WCI = WIND CHILL INDEX
       VSB = VISIBILITY
       HX  = HEAT INDEX
$$




USA.gov is the U.S. government's official web portal to all federal, state and local government web resources and services.